{"data":{"norad_id":66526,"intl_designator":"2025-265L","name":"STARLINK-35932","alt_names":[],"object_type":"PAYLOAD","status":"ACTIVE","operator":null,"country":"US","launch_date":"2025-11-19","launch_site_code":"AFETR","launch_vehicle":null,"mission":null,"orbit_class":"UNKNOWN","rcs_meters":null,"size_class":null,"mass_kg":null,"dimensions":null,"purposes":["comms"],"wikipedia_slug":null,"has_3d_model":false,"image_url":null,"decayed_at":null,"tle_current":{"epoch":"2026-09-20T08:10:29.103168Z","epoch_age_seconds":103051,"freshness":"FRESH","line1":"1 66526U 25265L   26263.34061462  .00008756  00000+0  32726-3 0  9998","line2":"2 66526  42.9999 258.5772 0001294 273.7028  86.3675 15.27586682 46881","mean_motion":15.27586682,"eccentricity":0.0001294,"inclination_deg":42.9999,"raan_deg":258.5772,"arg_perigee_deg":273.7028,"mean_anomaly_deg":86.3675,"bstar":0.00032726,"rev_number":4688,"period_min":94.266336370167,"perigee_km":482.14125290899,"apogee_km":483.91692269251,"semimajor_km":6861.1660878007,"source":"CELESTRAK","updated_at":"2026-09-21T09:00:35.965319Z"}}}